SAR-LUPE 3 1 32283U 07053A 25312.81712833 .00150693 00000+0 85616-3 0 9991 2 32283 98.1605 123.3334 0008262 187.8382 172.2755 15.78529664 5886 SAPPHIRE 1 39088U 13009C 25312.78670882 .00000258 00000+0 10512-3 0 9996 2 39088 98.4164 132.5753 0011158 179.5660 180.5537 14.35140693664964 PRAETORIAN SDA_602 1 65565U 25203A 25312.67321750 .00000199 00000+0 16686-3 0 9991 2 65565 81.3044 215.0537 0007349 72.2095 287.9863 13.84616106 8186 PRAETORIAN SDA_603 1 65566U 25203B 25312.42494368 .00000190 00000+0 15688-3 0 9993 2 65566 81.3050 215.2200 0011326 71.4933 288.7454 13.85356651 8154 PRAETORIAN SDA_604 1 65567U 25203C 25312.74718141 .00000184 00000+0 15305-3 0 9996 2 65567 81.3071 215.0064 0007598 74.9037 285.2960 13.84577214 8190 PRAETORIAN SDA_605 1 65568U 25203D 25312.72112162 .00000177 00000+0 14561-3 0 9991 2 65568 81.3037 214.9502 0010435 70.3063 289.9219 13.85187632 8191 PRAETORIAN SDA_606 1 65569U 25203E 25312.66991826 .00000032 00000+0 18186-4 0 9995 2 65569 81.3066 215.0648 0008011 72.5590 287.6442 13.84691075 8185 PRAETORIAN SDA_607 1 65570U 25203F 25312.71938727 .00000163 00000+0 13338-3 0 9992 2 65570 81.3052 214.9632 0010619 70.7021 289.5284 13.85229157 8194 PRAETORIAN SDA_608 1 65571U 25203G 25312.67668112 .00000104 00000+0 82135-4 0 9993 2 65571 81.3020 215.0418 0007437 76.2491 283.9494 13.84535735 8181 PRAETORIAN SDA_609 1 65572U 25203H 25312.73890774 .00000048 00000+0 31956-4 0 9994 2 65572 81.3060 214.9903 0008297 70.1963 290.0088 13.84765158 8198 PRAETORIAN SDA_610 1 65573U 25203J 25312.67161911 .00000335 00000+0 28715-3 0 9999 2 65573 81.3019 215.0354 0007944 73.4156 286.7872 13.84656091 8180 PRAETORIAN SDA_611 1 65574U 25203K 25312.67984962 .00000160 00000+0 13204-3 0 9992 2 65574 81.3026 215.0504 0007255 78.8817 281.3155 13.84462657 8182 PRAETORIAN SDA_612 1 65575U 25203L 25312.72277398 .00000087 00000+0 66159-4 0 9993 2 65575 81.3051 214.9672 0010228 69.7394 290.4862 13.85150526 8195 PRAETORIAN SDA_613 1 65576U 25203M 25312.66829424 .00000138 00000+0 11180-3 0 9990 2 65576 81.3021 215.0330 0008165 71.6078 288.5966 13.84732652 8181 PRAETORIAN SDA_614 1 65577U 25203N 25312.73745128 .00000164 00000+0 13508-3 0 9992 2 65577 81.3033 214.9710 0008332 69.0439 291.1609 13.84804425 8208 PRAETORIAN SDA_615 1 65578U 25203P 25312.42835486 .00000129 00000+0 10318-3 0 9993 2 65578 81.3037 215.2134 0010809 72.1036 288.1299 13.85281939 8152 PRAETORIAN SDA_616 1 65579U 25203Q 25312.67827900 .00000186 00000+0 15562-3 0 9992 2 65579 81.3066 215.0746 0007348 77.3508 282.8470 13.84499146 8182 PRAETORIAN SDA_617 1 65580U 25203R 25312.43739596 .00000166 00000+0 13638-3 0 9991 2 65580 81.3053 215.2395 0009933 69.9228 290.2997 13.85066562 8157 PRAETORIAN SDA_618 1 65581U 25203S 25312.71553781 .00000181 00000+0 14846-3 0 9992 2 65581 81.3037 214.9438 0011051 70.9717 289.2636 13.85319307 8193 PRAETORIAN SDA_619 1 65582U 25203T 25312.72828487 -.00000059 00000+0 -62910-4 0 9994 2 65582 81.3051 214.9737 0009569 69.0814 291.1366 13.85018417 8820 PRAETORIAN SDA_620 1 65583U 25203U 25312.73004007 .00000195 00000+0 16173-3 0 9998 2 65583 81.3044 214.9657 0009456 69.0812 291.1357 13.84980412 8199 PRAETORIAN SDA_621 1 65584U 25203V 25312.72451917 .00000170 00000+0 13915-3 0 9998 2 65584 81.3039 214.9547 0010079 69.4955 290.7283 13.85110216 8198 PRAETORIAN SDA_601 1 65585U 25203W 25312.68165693 .00000184 00000+0 15375-3 0 9994 2 65585 81.3054 215.0700 0007249 80.4977 279.6999 13.84420444 8186